Year,Month,Day,Hour,Minute,Value (Times are PST for temperature in C)
2013,05,26,00,00,10.10
2013,05,26,00,01,10.10
2013,05,26,00,02,10.10
2013,05,26,00,03,10.00
2013,05,26,00,04,10.00
2013,05,26,00,05,10.00
2013,05,26,00,06,10.00
2013,05,26,00,07,10.00
2013,05,26,00,08,9.90
2013,05,26,00,09,9.90
2013,05,26,00,10,9.90
2013,05,26,00,11,9.90
2013,05,26,00,12,9.90
2013,05,26,00,13,9.90
2013,05,26,00,14,9.90
2013,05,26,00,15,9.90
2013,05,26,00,16,9.90
2013,05,26,00,17,9.90
2013,05,26,00,18,9.90
2013,05,26,00,19,9.90
2013,05,26,00,20,9.90
2013,05,26,00,21,9.90
2013,05,26,00,22,9.90
2013,05,26,00,23,9.90
2013,05,26,00,24,9.90
2013,05,26,00,25,9.90
2013,05,26,00,26,10.00
2013,05,26,00,27,9.90
2013,05,26,00,28,10.00
2013,05,26,00,29,10.00
2013,05,26,00,30,10.00
2013,05,26,00,31,9.90
2013,05,26,00,32,9.90
2013,05,26,00,33,9.90
2013,05,26,00,34,9.90
2013,05,26,00,35,9.90
2013,05,26,00,36,9.90
2013,05,26,00,37,9.90
2013,05,26,00,38,9.80
2013,05,26,00,39,9.80
2013,05,26,00,40,9.80
2013,05,26,00,41,9.80
2013,05,26,00,42,9.80
2013,05,26,00,43,9.80
2013,05,26,00,44,9.70
2013,05,26,00,45,9.70
2013,05,26,00,46,9.70
2013,05,26,00,47,9.70
2013,05,26,00,48,9.60
2013,05,26,00,49,9.60
2013,05,26,00,50,9.60
2013,05,26,00,51,9.60
2013,05,26,00,52,9.50
2013,05,26,00,53,9.50
2013,05,26,00,54,9.50
2013,05,26,00,55,9.40
2013,05,26,00,56,9.40
2013,05,26,00,57,9.40
2013,05,26,00,58,9.30
2013,05,26,00,59,9.30
2013,05,26,01,00,9.30
2013,05,26,01,01,9.30
2013,05,26,01,02,9.30
2013,05,26,01,03,9.20
2013,05,26,01,04,9.20
2013,05,26,01,05,9.20
2013,05,26,01,06,9.20
2013,05,26,01,07,9.10
2013,05,26,01,08,9.10
2013,05,26,01,09,9.10
2013,05,26,01,10,9.00
2013,05,26,01,11,9.00
2013,05,26,01,12,9.00
2013,05,26,01,13,8.90
2013,05,26,01,14,8.90
2013,05,26,01,15,8.90
2013,05,26,01,16,8.90
2013,05,26,01,17,8.90
2013,05,26,01,18,8.90
2013,05,26,01,19,8.90
2013,05,26,01,20,8.90
2013,05,26,01,21,8.90
2013,05,26,01,22,8.80
2013,05,26,01,23,8.80
2013,05,26,01,24,8.80
2013,05,26,01,25,8.80
2013,05,26,01,26,8.70
2013,05,26,01,27,8.70
2013,05,26,01,28,8.70
2013,05,26,01,29,8.60
2013,05,26,01,30,8.60
2013,05,26,01,31,8.60
2013,05,26,01,32,8.60
2013,05,26,01,33,8.50
2013,05,26,01,34,8.50
2013,05,26,01,35,8.50
2013,05,26,01,36,8.50
2013,05,26,01,37,8.50
2013,05,26,01,38,8.50
2013,05,26,01,39,8.50
2013,05,26,01,40,8.40
2013,05,26,01,41,8.40
2013,05,26,01,42,8.40
2013,05,26,01,43,8.40
2013,05,26,01,44,8.40
2013,05,26,01,45,8.30
2013,05,26,01,46,8.30
2013,05,26,01,47,8.30
2013,05,26,01,48,8.30
2013,05,26,01,49,8.20
2013,05,26,01,50,8.20
2013,05,26,01,51,8.20
2013,05,26,01,52,8.20
2013,05,26,01,53,8.20
2013,05,26,01,54,8.10
2013,05,26,01,55,8.10
2013,05,26,01,56,8.10
2013,05,26,01,57,8.10
2013,05,26,01,58,8.10
2013,05,26,01,59,8.10
2013,05,26,02,00,8.00
2013,05,26,02,01,8.00
2013,05,26,02,02,8.00
2013,05,26,02,03,8.00
2013,05,26,02,04,8.00
2013,05,26,02,05,8.00
2013,05,26,02,06,7.90
2013,05,26,02,07,7.90
2013,05,26,02,08,7.90
2013,05,26,02,09,7.90
2013,05,26,02,10,7.90
2013,05,26,02,11,7.90
2013,05,26,02,12,7.90
2013,05,26,02,13,7.90
2013,05,26,02,14,7.90
2013,05,26,02,15,7.90
2013,05,26,02,16,7.90
2013,05,26,02,17,7.90
2013,05,26,02,18,7.90
2013,05,26,02,19,7.90
2013,05,26,02,20,7.90
2013,05,26,02,21,7.90
2013,05,26,02,22,7.90
2013,05,26,02,23,7.90
2013,05,26,02,24,8.00
2013,05,26,02,25,8.00
2013,05,26,02,26,8.00
2013,05,26,02,27,8.00
2013,05,26,02,28,8.00
2013,05,26,02,29,8.00
2013,05,26,02,30,8.00
2013,05,26,02,31,8.00
2013,05,26,02,32,8.00
2013,05,26,02,33,8.00
2013,05,26,02,34,8.00
2013,05,26,02,35,8.00
2013,05,26,02,36,8.00
2013,05,26,02,37,8.00
2013,05,26,02,38,8.00
2013,05,26,02,39,8.00
2013,05,26,02,40,8.10
2013,05,26,02,41,8.10
2013,05,26,02,42,8.10
2013,05,26,02,43,8.10
2013,05,26,02,44,8.10
2013,05,26,02,45,8.10
2013,05,26,02,46,8.10
2013,05,26,02,47,8.10
2013,05,26,02,48,8.10
2013,05,26,02,49,8.20
2013,05,26,02,50,8.20
2013,05,26,02,51,8.20
2013,05,26,02,52,8.20
2013,05,26,02,53,8.20
2013,05,26,02,54,8.20
2013,05,26,02,55,8.20
2013,05,26,02,56,8.20
2013,05,26,02,57,8.20
2013,05,26,02,58,8.20
2013,05,26,02,59,8.30
2013,05,26,03,00,8.30
2013,05,26,03,01,8.30
2013,05,26,03,02,8.30
2013,05,26,03,03,8.30
2013,05,26,03,04,8.30
2013,05,26,03,05,8.30
2013,05,26,03,06,8.30
2013,05,26,03,07,8.30
2013,05,26,03,08,8.30
2013,05,26,03,09,8.30
2013,05,26,03,10,8.30
2013,05,26,03,11,8.30
2013,05,26,03,12,8.30
2013,05,26,03,13,8.40
2013,05,26,03,14,8.40
2013,05,26,03,15,8.40
2013,05,26,03,16,8.40
2013,05,26,03,17,8.40
2013,05,26,03,18,8.40
2013,05,26,03,19,8.50
2013,05,26,03,20,8.50
2013,05,26,03,21,8.50
2013,05,26,03,22,8.60
2013,05,26,03,23,8.60
2013,05,26,03,24,8.60
2013,05,26,03,25,8.60
2013,05,26,03,26,8.60
2013,05,26,03,27,8.70
2013,05,26,03,28,8.70
2013,05,26,03,29,8.70
2013,05,26,03,30,8.70
2013,05,26,03,31,8.70
2013,05,26,03,32,8.70
2013,05,26,03,33,8.70
2013,05,26,03,34,8.70
2013,05,26,03,35,8.70
2013,05,26,03,36,8.70
2013,05,26,03,37,8.80
2013,05,26,03,38,8.80
2013,05,26,03,39,8.80
2013,05,26,03,40,8.80
2013,05,26,03,41,8.80
2013,05,26,03,42,8.80
2013,05,26,03,43,8.80
2013,05,26,03,44,8.80
2013,05,26,03,45,8.80
2013,05,26,03,46,8.80
2013,05,26,03,47,8.80
2013,05,26,03,48,8.80
2013,05,26,03,49,8.80
2013,05,26,03,50,8.80
2013,05,26,03,51,8.80
2013,05,26,03,52,8.80
2013,05,26,03,53,8.80
2013,05,26,03,54,8.80
2013,05,26,03,55,8.80
2013,05,26,03,56,8.80
2013,05,26,03,57,8.80
2013,05,26,03,58,8.80
2013,05,26,03,59,8.80
2013,05,26,04,00,8.80
2013,05,26,04,01,8.80
2013,05,26,04,02,8.80
2013,05,26,04,03,8.90
2013,05,26,04,04,8.90
2013,05,26,04,05,8.90
2013,05,26,04,06,8.90
2013,05,26,04,07,8.90
2013,05,26,04,08,8.90
2013,05,26,04,09,8.90
2013,05,26,04,10,8.90
2013,05,26,04,11,8.90
2013,05,26,04,12,8.90
2013,05,26,04,13,8.90
2013,05,26,04,14,8.90
2013,05,26,04,15,8.90
2013,05,26,04,16,8.90
2013,05,26,04,17,8.90
2013,05,26,04,18,8.90
2013,05,26,04,19,8.90
2013,05,26,04,20,8.90
2013,05,26,04,21,8.90
2013,05,26,04,22,8.90
2013,05,26,04,23,8.90
2013,05,26,04,24,8.90
2013,05,26,04,25,8.90
2013,05,26,04,26,8.90
2013,05,26,04,27,8.90
2013,05,26,04,28,8.90
2013,05,26,04,29,8.90
2013,05,26,04,30,8.90
2013,05,26,04,31,8.90
2013,05,26,04,32,8.90
2013,05,26,04,33,8.90
2013,05,26,04,34,8.90
2013,05,26,04,35,8.90
2013,05,26,04,36,8.90
2013,05,26,04,37,8.90
2013,05,26,04,38,8.90
2013,05,26,04,39,9.00
2013,05,26,04,40,9.00
2013,05,26,04,41,9.00
2013,05,26,04,42,9.00
2013,05,26,04,43,9.00
2013,05,26,04,44,9.00
2013,05,26,04,45,9.00
2013,05,26,04,46,9.00
2013,05,26,04,47,9.00
2013,05,26,04,48,9.00
2013,05,26,04,49,9.00
2013,05,26,04,50,9.00
2013,05,26,04,51,9.00
2013,05,26,04,52,9.00
2013,05,26,04,53,9.00
2013,05,26,04,54,9.00
2013,05,26,04,55,9.00
2013,05,26,04,56,9.00
2013,05,26,04,57,9.00
2013,05,26,04,58,9.00
2013,05,26,04,59,9.00
2013,05,26,05,00,9.00
2013,05,26,05,01,9.00
2013,05,26,05,02,9.00
2013,05,26,05,03,9.10
2013,05,26,05,04,9.10
2013,05,26,05,05,9.10
2013,05,26,05,06,9.10
2013,05,26,05,07,9.10
2013,05,26,05,08,9.10
2013,05,26,05,09,9.10
2013,05,26,05,10,9.10
2013,05,26,05,11,9.10
2013,05,26,05,12,9.10
2013,05,26,05,13,9.10
2013,05,26,05,14,9.10
2013,05,26,05,15,9.10
2013,05,26,05,16,9.10
2013,05,26,05,17,9.10
2013,05,26,05,18,9.10
2013,05,26,05,19,9.10
2013,05,26,05,20,9.10
2013,05,26,05,21,9.10
2013,05,26,05,22,9.10
2013,05,26,05,23,9.10
2013,05,26,05,24,9.10
2013,05,26,05,25,9.10
2013,05,26,05,26,9.10
2013,05,26,05,27,9.10
2013,05,26,05,28,9.10
2013,05,26,05,29,9.10
2013,05,26,05,30,9.10
2013,05,26,05,31,9.10
2013,05,26,05,32,9.10
2013,05,26,05,33,9.10
2013,05,26,05,34,9.10
2013,05,26,05,35,9.20
2013,05,26,05,36,9.20
2013,05,26,05,37,9.20
2013,05,26,05,38,9.20
2013,05,26,05,39,9.20
2013,05,26,05,40,9.20
2013,05,26,05,41,9.20
2013,05,26,05,42,9.20
2013,05,26,05,43,9.20
2013,05,26,05,44,9.20
2013,05,26,05,45,9.20
2013,05,26,05,46,9.30
2013,05,26,05,47,9.30
2013,05,26,05,48,9.30
2013,05,26,05,49,9.30
2013,05,26,05,50,9.30
2013,05,26,05,51,9.30
2013,05,26,05,52,9.30
2013,05,26,05,53,9.30
2013,05,26,05,54,9.30
2013,05,26,05,55,9.30
2013,05,26,05,56,9.30
2013,05,26,05,57,9.30
2013,05,26,05,58,9.30
2013,05,26,05,59,9.40
2013,05,26,06,00,9.40
2013,05,26,06,01,9.40
2013,05,26,06,02,9.40
2013,05,26,06,03,9.40
2013,05,26,06,04,9.50
2013,05,26,06,05,9.50
2013,05,26,06,06,9.50
2013,05,26,06,07,9.60
2013,05,26,06,08,9.60
2013,05,26,06,09,9.60
2013,05,26,06,10,9.60
2013,05,26,06,11,9.60
2013,05,26,06,12,9.70
2013,05,26,06,13,9.70
2013,05,26,06,14,9.70
2013,05,26,06,15,9.70
2013,05,26,06,16,9.80
2013,05,26,06,17,9.80
2013,05,26,06,18,9.80
2013,05,26,06,19,9.80
2013,05,26,06,20,9.90
2013,05,26,06,21,9.90
2013,05,26,06,22,9.90
2013,05,26,06,23,10.00
2013,05,26,06,24,10.00
2013,05,26,06,25,10.00
2013,05,26,06,26,10.10
2013,05,26,06,27,10.10
2013,05,26,06,28,10.10
2013,05,26,06,29,10.20
2013,05,26,06,30,10.20
2013,05,26,06,31,10.20
2013,05,26,06,32,10.30
2013,05,26,06,33,10.30
2013,05,26,06,34,10.30
2013,05,26,06,35,10.30
2013,05,26,06,36,10.40
2013,05,26,06,37,10.40
2013,05,26,06,38,10.40
2013,05,26,06,39,10.50
2013,05,26,06,40,10.50
2013,05,26,06,41,10.60
2013,05,26,06,42,10.60
2013,05,26,06,43,10.60
2013,05,26,06,44,10.70
2013,05,26,06,45,10.70
2013,05,26,06,46,10.70
2013,05,26,06,47,10.70
2013,05,26,06,48,10.80
2013,05,26,06,49,10.80
2013,05,26,06,50,10.80
2013,05,26,06,51,10.80
2013,05,26,06,52,10.80
2013,05,26,06,53,10.80
2013,05,26,06,54,10.90
2013,05,26,06,55,10.90
2013,05,26,06,56,10.90
2013,05,26,06,57,10.90
2013,05,26,06,58,10.90
2013,05,26,06,59,11.00
2013,05,26,07,00,11.00
2013,05,26,07,01,11.00
2013,05,26,07,02,11.00
2013,05,26,07,03,11.10
2013,05,26,07,04,11.10
2013,05,26,07,05,11.10
2013,05,26,07,06,11.10
2013,05,26,07,07,11.10
2013,05,26,07,08,11.10
2013,05,26,07,09,11.20
2013,05,26,07,10,11.20
2013,05,26,07,11,11.20
2013,05,26,07,12,11.20
2013,05,26,07,13,11.20
2013,05,26,07,14,11.20
2013,05,26,07,15,11.30
2013,05,26,07,16,11.30
2013,05,26,07,17,11.30
2013,05,26,07,18,11.30
2013,05,26,07,19,11.30
2013,05,26,07,20,11.30
2013,05,26,07,21,11.30
2013,05,26,07,22,11.30
2013,05,26,07,23,11.30
2013,05,26,07,24,11.30
2013,05,26,07,25,11.40
2013,05,26,07,26,11.40
2013,05,26,07,27,11.40
2013,05,26,07,28,11.40
2013,05,26,07,29,11.40
2013,05,26,07,30,11.40
2013,05,26,07,31,11.40
2013,05,26,07,32,11.50
2013,05,26,07,33,11.50
2013,05,26,07,34,11.50
2013,05,26,07,35,11.50
2013,05,26,07,36,11.50
2013,05,26,07,37,11.60
2013,05,26,07,38,11.60
2013,05,26,07,39,11.60
2013,05,26,07,40,11.60
2013,05,26,07,41,11.60
2013,05,26,07,42,11.60
2013,05,26,07,43,11.60
2013,05,26,07,44,11.60
2013,05,26,07,45,11.60
2013,05,26,07,46,11.60
2013,05,26,07,47,11.60
2013,05,26,07,48,11.60
2013,05,26,07,49,11.60
2013,05,26,07,50,11.60
2013,05,26,07,51,11.70
2013,05,26,07,52,11.70
2013,05,26,07,53,11.70
2013,05,26,07,54,11.70
2013,05,26,07,55,11.70
2013,05,26,07,56,11.70
2013,05,26,07,57,11.70
2013,05,26,07,58,11.70
2013,05,26,07,59,11.70
2013,05,26,08,00,11.70
2013,05,26,08,01,11.80
2013,05,26,08,02,11.80
2013,05,26,08,03,11.80
2013,05,26,08,04,11.80
2013,05,26,08,05,11.80
2013,05,26,08,06,11.80
2013,05,26,08,07,11.80
2013,05,26,08,08,11.90
2013,05,26,08,09,11.90
2013,05,26,08,10,11.90
2013,05,26,08,11,11.90
2013,05,26,08,12,11.90
2013,05,26,08,13,11.90
2013,05,26,08,14,11.90
2013,05,26,08,15,11.90
2013,05,26,08,16,11.90
2013,05,26,08,17,11.90
2013,05,26,08,18,11.90
2013,05,26,08,19,12.00
2013,05,26,08,20,12.00
2013,05,26,08,21,12.00
2013,05,26,08,22,12.00
2013,05,26,08,23,12.10
2013,05,26,08,24,12.10
2013,05,26,08,25,12.10
2013,05,26,08,26,12.10
2013,05,26,08,27,12.10
2013,05,26,08,28,12.20
2013,05,26,08,29,12.20
2013,05,26,08,30,12.20
2013,05,26,08,31,12.20
2013,05,26,08,32,12.30
2013,05,26,08,33,12.30
2013,05,26,08,34,12.30
2013,05,26,08,35,12.40
2013,05,26,08,36,12.40
2013,05,26,08,37,12.40
2013,05,26,08,38,12.40
2013,05,26,08,39,12.50
2013,05,26,08,40,12.50
2013,05,26,08,41,12.60
2013,05,26,08,42,12.70
2013,05,26,08,43,12.70
2013,05,26,08,44,12.80
2013,05,26,08,45,12.80
2013,05,26,08,46,12.80
2013,05,26,08,47,12.90
2013,05,26,08,48,12.90
2013,05,26,08,49,13.00
2013,05,26,08,50,13.10
2013,05,26,08,51,13.10
2013,05,26,08,52,13.20
2013,05,26,08,53,13.20
2013,05,26,08,54,13.20
2013,05,26,08,55,13.30
2013,05,26,08,56,13.30
2013,05,26,08,57,13.30
2013,05,26,08,58,13.40
2013,05,26,08,59,13.40
2013,05,26,09,00,13.40
2013,05,26,09,01,13.50
2013,05,26,09,02,13.50
2013,05,26,09,03,13.50
2013,05,26,09,04,13.50
2013,05,26,09,05,13.50
2013,05,26,09,06,13.50
2013,05,26,09,07,13.50
2013,05,26,09,08,13.50
2013,05,26,09,09,13.50
2013,05,26,09,10,13.50
2013,05,26,09,11,13.50
2013,05,26,09,12,13.40
2013,05,26,09,13,13.40
2013,05,26,09,14,13.40
2013,05,26,09,15,13.40
2013,05,26,09,16,13.40
2013,05,26,09,17,13.40
2013,05,26,09,18,13.40
2013,05,26,09,19,13.40
2013,05,26,09,20,13.30
2013,05,26,09,21,13.30
2013,05,26,09,22,13.30
2013,05,26,09,23,13.30
2013,05,26,09,24,13.30
2013,05,26,09,25,13.30
2013,05,26,09,26,13.30
2013,05,26,09,27,13.40
2013,05,26,09,28,13.40
2013,05,26,09,29,13.40
2013,05,26,09,30,13.40
2013,05,26,09,31,13.40
2013,05,26,09,32,13.40
2013,05,26,09,33,13.50
2013,05,26,09,34,13.50
2013,05,26,09,35,13.50
2013,05,26,09,36,13.50
2013,05,26,09,37,13.50
2013,05,26,09,38,13.60
2013,05,26,09,39,13.60
2013,05,26,09,40,13.60
2013,05,26,09,41,13.60
2013,05,26,09,42,13.60
2013,05,26,09,43,13.70
2013,05,26,09,44,13.70
2013,05,26,09,45,13.70
2013,05,26,09,46,13.70
2013,05,26,09,47,13.70
2013,05,26,09,48,13.80
2013,05,26,09,49,13.80
2013,05,26,09,50,13.80
2013,05,26,09,51,13.80
2013,05,26,09,52,13.80
2013,05,26,09,53,13.80
2013,05,26,09,54,13.80
2013,05,26,09,55,13.80
2013,05,26,09,56,13.80
2013,05,26,09,57,13.70
2013,05,26,09,58,13.70
2013,05,26,09,59,13.70
2013,05,26,10,00,13.60
2013,05,26,10,01,13.60
2013,05,26,10,02,13.60
2013,05,26,10,03,13.60
2013,05,26,10,04,13.70
2013,05,26,10,05,13.70
2013,05,26,10,06,13.80
2013,05,26,10,07,13.90
2013,05,26,10,08,13.90
2013,05,26,10,09,14.00
2013,05,26,10,10,14.10
2013,05,26,10,11,14.20
2013,05,26,10,12,14.20
2013,05,26,10,13,14.20
2013,05,26,10,14,14.20
2013,05,26,10,15,14.20
2013,05,26,10,16,14.20
2013,05,26,10,17,14.20
2013,05,26,10,18,14.20
2013,05,26,10,19,14.20
2013,05,26,10,20,14.20
2013,05,26,10,21,14.20
2013,05,26,10,22,14.10
2013,05,26,10,23,14.10
2013,05,26,10,24,14.10
2013,05,26,10,25,14.10
2013,05,26,10,26,14.00
2013,05,26,10,27,14.00
2013,05,26,10,28,14.00
2013,05,26,10,29,14.00
2013,05,26,10,30,14.00
2013,05,26,10,31,13.90
2013,05,26,10,32,13.90
2013,05,26,10,33,13.90
2013,05,26,10,34,13.90
2013,05,26,10,35,13.90
2013,05,26,10,36,13.80
2013,05,26,10,37,13.80
2013,05,26,10,38,13.80
2013,05,26,10,39,13.80
2013,05,26,10,40,13.80
2013,05,26,10,41,13.80
2013,05,26,10,42,13.80
2013,05,26,10,43,13.80
2013,05,26,10,44,13.80
2013,05,26,10,45,13.80
2013,05,26,10,46,13.80
2013,05,26,10,47,13.80
2013,05,26,10,48,13.80
2013,05,26,10,49,13.80
2013,05,26,10,50,13.80
2013,05,26,10,51,13.90
2013,05,26,10,52,13.90
2013,05,26,10,53,13.90
2013,05,26,10,54,13.90
2013,05,26,10,55,13.90
2013,05,26,10,56,13.90
2013,05,26,10,57,13.90
2013,05,26,10,58,13.90
2013,05,26,10,59,13.80
2013,05,26,11,00,13.90
2013,05,26,11,01,13.80
2013,05,26,11,02,13.80
2013,05,26,11,03,13.80
2013,05,26,11,04,13.90
2013,05,26,11,05,13.90
2013,05,26,11,06,13.90
2013,05,26,11,07,13.90
2013,05,26,11,08,13.90
2013,05,26,11,09,14.00
2013,05,26,11,10,14.00
2013,05,26,11,11,14.00
2013,05,26,11,12,14.10
2013,05,26,11,13,14.10
2013,05,26,11,14,14.10
2013,05,26,11,15,14.10
2013,05,26,11,16,14.20
2013,05,26,11,17,14.20
2013,05,26,11,18,14.20
2013,05,26,11,19,14.20
2013,05,26,11,20,14.20
2013,05,26,11,21,14.20
2013,05,26,11,22,14.20
2013,05,26,11,23,14.20
2013,05,26,11,24,14.10
2013,05,26,11,25,14.10
2013,05,26,11,26,14.10
2013,05,26,11,27,14.00
2013,05,26,11,28,14.00
2013,05,26,11,29,14.00
2013,05,26,11,30,13.90
2013,05,26,11,31,13.90
2013,05,26,11,32,13.90
2013,05,26,11,33,13.80
2013,05,26,11,34,13.80
2013,05,26,11,35,13.80
2013,05,26,11,36,13.70
2013,05,26,11,37,13.70
2013,05,26,11,38,13.60
2013,05,26,11,39,13.60
2013,05,26,11,40,13.60
2013,05,26,11,41,13.60
2013,05,26,11,42,13.70
2013,05,26,11,43,13.70
2013,05,26,11,44,13.70
2013,05,26,11,45,13.70
2013,05,26,11,46,13.70
2013,05,26,11,47,13.80
2013,05,26,11,48,13.80
2013,05,26,11,49,13.90
2013,05,26,11,50,13.90
2013,05,26,11,51,13.90
2013,05,26,11,52,13.90
2013,05,26,11,53,13.90
2013,05,26,11,54,13.90
2013,05,26,11,55,13.90
2013,05,26,11,56,14.00
2013,05,26,11,57,14.00
2013,05,26,11,58,14.00
2013,05,26,11,59,14.00
2013,05,26,12,00,14.10
2013,05,26,12,01,14.10
2013,05,26,12,02,14.20
2013,05,26,12,03,14.20
2013,05,26,12,04,14.30
2013,05,26,12,05,14.30
2013,05,26,12,06,14.40
2013,05,26,12,07,14.40
2013,05,26,12,08,14.40
2013,05,26,12,09,14.50
2013,05,26,12,10,14.50
2013,05,26,12,11,14.60
2013,05,26,12,12,14.70
2013,05,26,12,13,14.70
2013,05,26,12,14,14.70
2013,05,26,12,15,14.70
2013,05,26,12,16,14.70
2013,05,26,12,17,14.70
2013,05,26,12,18,14.70
2013,05,26,12,19,14.70
2013,05,26,12,20,14.70
2013,05,26,12,21,14.60
2013,05,26,12,22,14.60
2013,05,26,12,23,14.60
2013,05,26,12,24,14.70
2013,05,26,12,25,14.70
2013,05,26,12,26,14.80
2013,05,26,12,27,14.90
2013,05,26,12,28,15.00
2013,05,26,12,29,15.00
2013,05,26,12,30,15.00
2013,05,26,12,31,15.10
2013,05,26,12,32,15.30
2013,05,26,12,33,15.40
2013,05,26,12,34,15.60
2013,05,26,12,35,15.70
2013,05,26,12,36,15.70
2013,05,26,12,37,15.70
2013,05,26,12,38,15.60
2013,05,26,12,39,15.60
2013,05,26,12,40,15.60
2013,05,26,12,41,15.60
2013,05,26,12,42,15.60
2013,05,26,12,43,15.50
2013,05,26,12,44,15.50
2013,05,26,12,45,15.60
2013,05,26,12,46,15.60
2013,05,26,12,47,15.60
2013,05,26,12,48,15.70
2013,05,26,12,49,15.70
2013,05,26,12,50,15.80
2013,05,26,12,51,15.90
2013,05,26,12,52,15.90
2013,05,26,12,53,15.90
2013,05,26,12,54,15.90
2013,05,26,12,55,15.80
2013,05,26,12,56,15.80
2013,05,26,12,57,15.80
2013,05,26,12,58,15.90
2013,05,26,12,59,16.00
2013,05,26,13,00,16.10
2013,05,26,13,01,16.20
2013,05,26,13,02,16.20
2013,05,26,13,03,16.20
2013,05,26,13,04,16.20
2013,05,26,13,05,16.30
2013,05,26,13,06,16.40
2013,05,26,13,07,16.40
2013,05,26,13,08,16.50
2013,05,26,13,09,16.60
2013,05,26,13,10,16.70
2013,05,26,13,11,16.60
2013,05,26,13,12,16.60
2013,05,26,13,13,16.70
2013,05,26,13,14,16.70
2013,05,26,13,15,16.70
2013,05,26,13,16,16.80
2013,05,26,13,17,16.80
2013,05,26,13,18,16.90
2013,05,26,13,19,16.80
2013,05,26,13,20,16.70
2013,05,26,13,21,16.60
2013,05,26,13,22,16.60
2013,05,26,13,23,16.60
2013,05,26,13,24,16.60
2013,05,26,13,25,16.60
2013,05,26,13,26,16.70
2013,05,26,13,27,16.70
2013,05,26,13,28,16.80
2013,05,26,13,29,16.80
2013,05,26,13,30,16.80
2013,05,26,13,31,16.80
2013,05,26,13,32,16.80
2013,05,26,13,33,16.80
2013,05,26,13,34,16.90
2013,05,26,13,35,16.90
2013,05,26,13,36,16.70
2013,05,26,13,37,16.60
2013,05,26,13,38,16.60
2013,05,26,13,39,16.50
2013,05,26,13,40,16.50
2013,05,26,13,41,16.50
2013,05,26,13,42,16.60
2013,05,26,13,43,16.70
2013,05,26,13,44,16.70
2013,05,26,13,45,16.70
2013,05,26,13,46,16.70
2013,05,26,13,47,16.70
2013,05,26,13,48,16.70
2013,05,26,13,49,16.70
2013,05,26,13,50,16.80
2013,05,26,13,51,16.80
2013,05,26,13,52,16.80
2013,05,26,13,53,16.80
2013,05,26,13,54,16.70
2013,05,26,13,55,16.60
2013,05,26,13,56,16.50
2013,05,26,13,57,16.40
2013,05,26,13,58,16.40
2013,05,26,13,59,16.40
2013,05,26,14,00,16.50
2013,05,26,14,01,16.40
2013,05,26,14,02,16.30
2013,05,26,14,03,16.30
2013,05,26,14,04,16.20
2013,05,26,14,05,16.10
2013,05,26,14,06,16.10
2013,05,26,14,07,16.10
2013,05,26,14,08,16.10
2013,05,26,14,09,16.10
2013,05,26,14,10,16.10
2013,05,26,14,11,16.10
2013,05,26,14,12,16.00
2013,05,26,14,13,15.90
2013,05,26,14,14,15.90
2013,05,26,14,15,15.90
2013,05,26,14,16,15.90
2013,05,26,14,17,15.80
2013,05,26,14,18,15.80
2013,05,26,14,19,15.80
2013,05,26,14,20,15.80
2013,05,26,14,21,15.80
2013,05,26,14,22,15.80
2013,05,26,14,23,15.80
2013,05,26,14,24,15.80
2013,05,26,14,25,15.70
2013,05,26,14,26,15.70
2013,05,26,14,27,15.70
2013,05,26,14,28,15.80
2013,05,26,14,29,15.70
2013,05,26,14,30,15.70
2013,05,26,14,31,15.60
2013,05,26,14,32,15.70
2013,05,26,14,33,15.60
2013,05,26,14,34,15.60
2013,05,26,14,35,15.60
2013,05,26,14,36,15.50
2013,05,26,14,37,15.60
2013,05,26,14,38,15.60
2013,05,26,14,39,15.60
2013,05,26,14,40,15.50
2013,05,26,14,41,15.40
2013,05,26,14,42,15.40
2013,05,26,14,43,15.30
2013,05,26,14,44,15.20
2013,05,26,14,45,15.10
2013,05,26,14,46,15.00
2013,05,26,14,47,15.00
2013,05,26,14,48,15.00
2013,05,26,14,49,15.00
2013,05,26,14,50,15.00
2013,05,26,14,51,14.90
2013,05,26,14,52,14.80
2013,05,26,14,53,14.80
2013,05,26,14,54,14.70
2013,05,26,14,55,14.70
2013,05,26,14,56,14.70
2013,05,26,14,57,14.60
2013,05,26,14,58,14.50
2013,05,26,14,59,14.50
2013,05,26,15,00,14.40
2013,05,26,15,01,14.40
2013,05,26,15,02,14.40
2013,05,26,15,03,14.40
2013,05,26,15,04,14.30
2013,05,26,15,05,14.40
2013,05,26,15,06,14.40
2013,05,26,15,07,14.40
2013,05,26,15,08,14.40
2013,05,26,15,09,14.50
2013,05,26,15,10,14.50
2013,05,26,15,11,14.60
2013,05,26,15,12,14.60
2013,05,26,15,13,14.70
2013,05,26,15,14,14.70
2013,05,26,15,15,14.70
2013,05,26,15,16,14.80
2013,05,26,15,17,14.80
2013,05,26,15,18,14.80
2013,05,26,15,19,14.80
2013,05,26,15,20,14.80
2013,05,26,15,21,14.80
2013,05,26,15,22,14.90
2013,05,26,15,23,14.90
2013,05,26,15,24,14.90
2013,05,26,15,25,14.80
2013,05,26,15,26,14.80
2013,05,26,15,27,14.80
2013,05,26,15,28,14.80
2013,05,26,15,29,14.90
2013,05,26,15,30,15.00
2013,05,26,15,31,15.00
2013,05,26,15,32,15.00
2013,05,26,15,33,15.00
2013,05,26,15,34,15.00
2013,05,26,15,35,15.00
2013,05,26,15,36,15.00
2013,05,26,15,37,15.00
2013,05,26,15,38,15.00
2013,05,26,15,39,15.00
2013,05,26,15,40,15.00
2013,05,26,15,41,15.00
2013,05,26,15,42,15.00
2013,05,26,15,43,15.00
2013,05,26,15,44,15.00
2013,05,26,15,45,15.00
2013,05,26,15,46,15.00
2013,05,26,15,47,15.10
2013,05,26,15,48,15.10
2013,05,26,15,49,15.20
2013,05,26,15,50,15.20
2013,05,26,15,51,15.20
2013,05,26,15,52,15.30
2013,05,26,15,53,15.30
2013,05,26,15,54,15.30
2013,05,26,15,55,15.30
2013,05,26,15,56,15.30
2013,05,26,15,57,15.30
2013,05,26,15,58,15.40
2013,05,26,15,59,15.40
2013,05,26,16,00,15.40
2013,05,26,16,01,15.40
2013,05,26,16,02,15.40
2013,05,26,16,03,15.40
2013,05,26,16,04,15.40
2013,05,26,16,05,15.40
2013,05,26,16,06,15.30
2013,05,26,16,07,15.30
2013,05,26,16,08,15.30
2013,05,26,16,09,15.30
2013,05,26,16,10,15.30
2013,05,26,16,11,15.20
2013,05,26,16,12,15.20
2013,05,26,16,13,15.10
2013,05,26,16,14,15.00
2013,05,26,16,15,15.00
2013,05,26,16,16,15.00
2013,05,26,16,17,15.00
2013,05,26,16,18,15.00
2013,05,26,16,19,14.90
2013,05,26,16,20,14.80
2013,05,26,16,21,14.80
2013,05,26,16,22,14.70
2013,05,26,16,23,14.70
2013,05,26,16,24,14.60
2013,05,26,16,25,14.60
2013,05,26,16,26,14.50
2013,05,26,16,27,14.50
2013,05,26,16,28,14.40
2013,05,26,16,29,14.40
2013,05,26,16,30,14.40
2013,05,26,16,31,14.40
2013,05,26,16,32,14.40
2013,05,26,16,33,14.30
2013,05,26,16,34,14.30
2013,05,26,16,35,14.30
2013,05,26,16,36,14.20
2013,05,26,16,37,14.20
2013,05,26,16,38,14.20
2013,05,26,16,39,14.20
2013,05,26,16,40,14.20
2013,05,26,16,41,14.20
2013,05,26,16,42,14.20
2013,05,26,16,43,14.20
2013,05,26,16,44,14.20
2013,05,26,16,45,14.20
2013,05,26,16,46,14.20
2013,05,26,16,47,14.30
2013,05,26,16,48,14.30
2013,05,26,16,49,14.40
2013,05,26,16,50,14.40
2013,05,26,16,51,14.40
2013,05,26,16,52,14.40
2013,05,26,16,53,14.50
2013,05,26,16,54,14.50
2013,05,26,16,55,14.60
2013,05,26,16,56,14.60
2013,05,26,16,57,14.70
2013,05,26,16,58,14.70
2013,05,26,16,59,14.80
2013,05,26,17,00,14.90
2013,05,26,17,01,15.00
2013,05,26,17,02,15.00
2013,05,26,17,03,15.00
2013,05,26,17,04,15.00
2013,05,26,17,05,15.20
2013,05,26,17,06,15.30
2013,05,26,17,07,15.30
2013,05,26,17,08,15.30
2013,05,26,17,09,15.40
2013,05,26,17,10,15.40
2013,05,26,17,11,15.40
2013,05,26,17,12,15.50
2013,05,26,17,13,15.50
2013,05,26,17,14,15.60
2013,05,26,17,15,15.60
2013,05,26,17,16,15.60
2013,05,26,17,17,15.60
2013,05,26,17,18,15.50
2013,05,26,17,19,15.50
2013,05,26,17,20,15.50
2013,05,26,17,21,15.50
2013,05,26,17,22,15.50
2013,05,26,17,23,15.50
2013,05,26,17,24,15.50
2013,05,26,17,25,15.50
2013,05,26,17,26,15.50
2013,05,26,17,27,15.50
2013,05,26,17,28,15.50
2013,05,26,17,29,15.40
2013,05,26,17,30,15.40
2013,05,26,17,31,15.40
2013,05,26,17,32,15.40
2013,05,26,17,33,15.40
2013,05,26,17,34,15.40
2013,05,26,17,35,15.40